sat.trackr.live / text

‹ back to catalog

STARLINK-37170

NORAD 68614 · 2026-073N

PAYLOAD ACTIVE UNKNOWN

§ Identity

Operator
Country
US
Launch date
2026-04-07
Launch site
AFWTR
Launch vehicle
Mass (kg)
RCS (m²)

Purposes: comms

External: N2YO · Heavens-Above · Gunter

§ Orbital elements

Epoch: 2026-09-19T23:52:11.406144Z

Period
93.91 min
Inclination
97.2848°
Eccentricity
0.0001366
Mean motion
15.33449564 rev/d
Perigee alt
464.6 km
Apogee alt
466.5 km
Semi-major
6,843.7 km
B*
3.7577e-4
RAAN
101.0250°
Arg perigee
98.3242°
Mean anomaly
261.8156°
Rev number
2,566

§ Raw data

STARLINK-371701 68614U 26073N   26262.99457646  .00012077  00000+0  37577-3 0  99992 68614  97.2848 101.0250 0001366  98.3242 261.8156 15.33449564 25660

JSON: /api/v1/satellites/68614 · /tle

For live sub-satellite position, see the globe view (requires WebGL).

§ Visibility from observer

Set your observer location to see the next 7 days of passes ≥ 10°. The values pass through the URL so the page stays shareable.

No JS? Fill the form by hand. The geolocation button needs JavaScript.